loading
|
Showing default

YAOGAN-43 02F, 60950

Orbit data source: Space-Track

YAOGAN-43 02F, 60950 is a Chinese payload satellite in LEO that was launched on Tue, 03 Sep 2024 UTC via a CHANG ZHENG 4B launch vehicle from the Xichang Space Center, China (XSC). Payloads include a variety of satellites, spacecraft, and rockets equipped with specific instruments for various scientific and technological missions. These include communications satellites like Starlink; space stations such as the ISS; scientific satellites like the Hubble; Earth observation satellites from companies like Planet Labs, Umbra, and HawkEye 360; GPS; miniature CubeSats for education and research; and military/defense satellites.

Loading next visibility...
Loading greatness...
YAOGAN-43 02F details
Identifier
60950, 2024-156F
Orbit
LEO
Last TLE update13 hours ago
Origin
Flag of CNCN / PRC
ManufacturerUnknown
Mission statusOperational
MissionUnknown
Bus & MotorUnknown
MassUnknown
Launch date (UTC)
2024-09-03 (2 weeks ago)
Launch vehicle
CHANG ZHENG 4B
Launch site
Xichang Space Center, China (XSC)
Object type
Payload
Rocket body
Debris
Radar Cross SectionLarge (>1 m²)

Expand to show TLE details & history

TLE from 13 hours ago
0 YAOGAN-43 02F
1 60950U 24156F   24261.38747878  .00057744  00000-0  22753-2 0  9993
2 60950  34.9932 249.5957 0007170  19.7570 340.3422 15.24484387  2148
Epoch: 2024-09-17T09:17Z
Definitive object data (Epoch: 2024-09-17T09:17:58.166Z)
Latitude-0.00001°
Longitude113.30047°
Altitude486.602 km
Speed7.627 km/s
True Right ascension16h 38m 22s
True Declination0° 00' 00"
Sunlit
Object was in daylight at TLE epoch
Predictive object data (real-time)
Latitude10.29576°
Longitude-85.14262°
Altitude493.897 km
Speed7.619 km/s
Apparent Right ascension03h 24m 12s
Apparent Declination-13° 44' 06"
Sunlit
Object is in full shadow
Predictive observer data (real-time)
Local Sidereal Time15:23:39
Azimuth359.696° N
Elevation-63.819°
Doppler factor1
Orbital elements
Apogee500.516 km
Perigee490.659 km
Semi-major axis6,873.724 km
Eccentricity0.000717
Inclination34.9932°
RAAN249.5957°
Arg. of periapsis19.757°
True anomaly340.31454°
Mean anomaly340.3422°
Eccentric anomaly340.32837°
Mean motion3.80851 °/min
BSTAR0.0022753
Period94.53 mins
No data available

YAOGAN-43 02F Visibility forecast

Observer location: 39.9160978°, -105.1181434

YAOGAN-43 02F is not visible in the next 10 days
Span
Click to sort rows by Start time (UTC) header in descending order
Start Az.
Max El. time (UTC)
Max El. Az.
Max El.
End time (UTC)
End Az.